[[{"header":{"parameterUnit":"m.s-1","parameterCategory":1,"la1":30.2991,"la2":30.254,"lo1":-89.0895,"lo2":-89.0444,"dy":0.0017,"dx":0.0017,"nx":28,"ny":28,"refTime":"2024-02-05T09:00:00:Z","depth":0,"parameterNumber":2,"parameterNumberName":"U-component_of_WINDS"},"data":[0,0,0,0,0,0,0,0,0,0,0,0,0,0,0,0,0,0,0,0,0,0,0,0,0,0,0,0,0,0,0,0,0,0,0,0,0,0,0,0,0,0,0,0,0,0,0,0,0,0,0,0,0,0,0,0,0,0,-1.07,-1.0701,0,-1.078,-1.0781,-1.0782,-1.0779,-1.0778,-1.0777,-1.0776,-1.0856,-1.0859,-1.0862,0,0,0,0,0,0,0,0,0,0,0,0,0,-1.0544,-1.0547,-1.07,-1.0701,-1.0702,-1.078,-1.0781,-1.0782,-1.0779,-1.0778,-1.0777,-1.0775,-1.0855,-1.0859,-1.0862,0,0,0,0,0,0,0,0,0,0,0,0,0,-1.0617,-1.0548,-1.07,-1.071,-1.0712,-1.078,-1.0781,-1.0783,-1.078,-1.0778,-1.0776,-1.0775,-1.0854,-1.0858,-1.0863,-1.0925,0,0,-1.0877,-1.088,0,0,0,0,0,0,0,0,-1.0613,-1.0623,-1.0708,-1.071,-1.0712,-1.0768,-1.0755,-1.083,-1.078,-1.0754,-1.0776,-1.0774,-1.0828,-1.0835,-1.0853,-1.0929,-1.0933,-1.0878,-1.0881,-1.0883,-1.0884,0,0,0,0,0,0,0,-1.0608,-1.0619,-1.0732,-1.0709,-1.0711,-1.071,-1.0719,-1.077,-1.0799,-1.0756,-1.0756,-1.0766,-1.0829,-1.0849,-1.0855,-1.0934,-1.0878,-1.0882,-1.0885,-1.0887,-1.1066,-1.1067,0,0,0,0,0,0,-1.0601,-1.0615,-1.0729,-1.0734,-1.0657,-1.0715,-1.0724,-1.0752,-1.0799,-1.0804,-1.0767,-1.0765,-1.0841,-1.085,-1.0858,-1.0935,-1.0883,-1.0887,-1.089,-1.1064,-1.1066,-1.1068,0,0,0,0,0,0,-1.0597,-1.0611,-1.0726,-1.0675,-1.0689,-1.0719,-1.075,-1.0754,-1.0774,-1.0807,-1.0812,-1.0782,-1.084,-1.0851,-1.0909,-1.0938,-1.0889,-1.0894,-1.1062,-1.1065,-1.1067,-1.109,0,0,0,0,0,0,-1.0593,-1.061,-1.0634,-1.0675,-1.0692,-1.0776,-1.0752,-1.0757,-1.0783,-1.0781,-1.0822,-1.0828,-1.084,-1.0902,-1.0914,-1.0944,-1.0897,-1.1059,-1.1063,-1.1066,-1.1086,-1.1093,-1.1098,0,0,0,0,0,-1.0587,-1.0637,-1.0635,-1.0649,-1.0723,-1.0778,-1.0788,-1.0801,-1.0785,-1.081,-1.0831,-1.0826,-1.0932,-1.0908,-1.0921,-1.0953,-1.1057,-1.1062,-1.1066,-1.1084,-1.1092,-1.1098,0,0,0,0,0,0,-1.0598,-1.0642,-1.0641,-1.0706,-1.0738,-1.0778,-1.0809,-1.0809,-1.0846,-1.0843,-1.0858,-1.0867,-1.0925,-1.0944,-1.0916,-1.1016,-1.0993,-1.1,-1.1002,-1.101,-1.1015,-1.101,-1.0901,0,0,0,0,0,-1.0608,-1.0649,-1.0685,-1.0738,-1.0755,-1.0779,-1.0804,-1.0811,-1.0845,-1.0859,-1.0884,-1.0917,-1.0958,-1.0984,-1.1024,-1.1089,-1.1098,-1.1117,-1.1123,-1.1128,-1.1134,-1.1171,-1.118,-1.1082,-1.1082,-1.1082,0,0,-1.0628,-1.0658,-1.0683,-1.0741,-1.0767,-1.081,-1.0791,-1.0836,-1.0868,-1.0866,-1.0923,-1.0942,-1.0979,-1.1041,-1.107,-1.1059,-1.1163,-1.1133,-1.1137,-1.1141,-1.1176,-1.1185,-1.1193,-1.1085,-1.1085,-1.1084,0,0,-1.0688,-1.0714,-1.0762,-1.0788,-1.0829,-1.0844,-1.0856,-1.0895,-1.0909,-1.0966,-1.0965,-1.1002,-1.1072,-1.1099,-1.1122,-1.1192,-1.119,-1.1204,-1.1236,-1.1271,-1.1279,-1.1286,-1.1312,-1.1321,-1.121,-1.121,-1.121,0,-1.0709,-1.0773,-1.0786,-1.0832,-1.0858,-1.0859,-1.0907,-1.0932,-1.0983,-1.1001,-1.0988,-1.1076,-1.1101,-1.117,-1.1187,-1.1205,-1.1219,-1.12,-1.1277,-1.1284,-1.1291,-1.1316,-1.1325,-1.1212,-1.1212,-1.1211,-1.1211,0,-1.0797,-1.0841,-1.0875,-1.0925,-1.0954,-1.1001,-1.1022,-1.105,-1.1055,-1.1072,-1.113,-1.116,-1.1206,-1.1222,-1.1227,-1.1292,-1.1284,-1.1274,-1.1251,-1.1302,-1.1325,-1.1335,-1.1214,-1.1213,-1.1213,-1.1213,0,0,-1.0867,-1.0923,-1.0935,-1.0958,-1.1003,-1.1037,-1.1084,-1.1129,-1.1154,-1.1188,-1.1228,-1.1287,-1.1278,-1.1304,-1.1312,-1.1343,-1.1398,-1.1329,-1.133,-1.1342,-1.1472,-1.1481,-1.1492,-1.1396,-1.1398,-1.1399,-1.1469,0,-1.0932,-1.1016,-1.103,-1.1104,-1.1145,-1.1146,-1.1187,-1.1218,-1.1235,-1.1272,-1.1291,-1.1333,-1.1317,-1.1333,-1.1364,-1.1384,-1.1424,-1.1379,-1.1434,-1.1435,-1.1426,-1.1504,-1.1513,-1.1578,-1.1479,-1.148,-1.1481,0,-1.102,-1.1058,-1.1136,-1.1176,-1.1194,-1.123,-1.1273,-1.1309,-1.1344,-1.1354,-1.1383,-1.1387,-1.1436,-1.141,-1.1477,-1.1446,-1.1469,-1.1482,-1.1485,-1.1492,-1.1463,-1.1514,-1.1599,-1.1609,-1.1496,-1.1495,-1.1494,0,-1.1065,-1.1135,-1.1192,-1.1211,-1.1257,-1.1283,-1.1304,-1.1338,-1.1364,-1.1401,-1.1419,-1.1461,-1.1484,-1.1516,-1.1531,-1.151,-1.1598,-1.1572,-1.1608,-1.1607,-1.1627,-1.1626,-1.1719,-1.1639,-1.1639,-1.1639,-1.1639,0,-1.1137,-1.1186,-1.1212,-1.1247,-1.1301,-1.1316,-1.1369,-1.1388,-1.1418,-1.1457,-1.1459,-1.1495,-1.1512,-1.155,-1.1562,-1.1616,-1.1626,-1.1636,-1.1638,-1.1637,-1.1635,-1.1653,-1.1649,-1.1642,-1.1641,-1.164,-1.164,0,-1.1197,-1.1217,-1.1279,-1.1318,-1.1329,-1.1367,-1.14,-1.1434,-1.145,-1.1499,-1.1511,-1.1537,-1.1582,-1.16,-1.1655,-1.1663,-1.1726,-1.1724,-1.1715,-1.1716,-1.1751,-1.1748,-1.1859,-1.1874,-1.1783,-1.1784,-1.1785,0,-1.1243,-1.128,-1.1324,-1.135,-1.1372,-1.1414,-1.1441,-1.1456,-1.1485,-1.1528,-1.1557,-1.1602,-1.1639,-1.1711,-1.1735,-1.1777,-1.1777,-1.1813,-1.1784,-1.1781,-1.1779,-1.1778,-1.1782,-1.1819,-1.182,-1.1821,-1.1821,0,-1.1323,-1.1331,-1.1371,-1.1415,-1.1447,-1.1482,-1.1516,-1.1537,-1.1557,-1.1589,-1.1636,-1.1665,-1.1721,-1.1766,-1.181,-1.183,-1.183,-1.183,-1.1841,-1.184,-1.1833,-1.1839,-1.1731,-1.1828,-1.1827,-1.1827,-1.1826,-1.1826,-1.1378,-1.1412,-1.1448,-1.1493,-1.152,-1.1551,-1.1585,-1.1606,-1.1646,-1.1694,-1.17,-1.175,-1.1784,-1.1843,-1.1865,-1.1904,-1.1895,-1.191,-1.1914,-1.1918,-1.1921,-1.1826,-1.1912,-1.1912,-1.1912,-1.1911,-1.1911,0,-1.1459,-1.1483,-1.1524,-1.1571,-1.1606,-1.1603,-1.164,-1.1669,-1.1714,-1.1746,-1.1783,-1.1837,-1.1881,-1.1907,-1.1951,-1.1978,-1.1979,-1.1989,-1.1988,-1.1993,-1.1926,-1.1914,-1.1988,-1.1988,-1.1988,-1.1988,-1.1988,-1.1988,-1.1506,-1.1563,-1.1575,-1.1646,-1.1669,-1.1719,-1.1741,-1.177,-1.1796,-1.1856,-1.1893,-1.191,-1.1941,-1.1987,-1.2027,-1.2033,-1.205,-1.2061,-1.2067,-1.2005,-1.1997,-1.199,-1.1978,-1.2064,-1.2064,-1.2131,-1.2131,-1.2132]},{"header":{"parameterUnit":"m.s-1","parameterCategory":1,"la1":30.2991,"la2":30.254,"lo1":-89.0895,"lo2":-89.0444,"dy":0.0017,"dx":0.0017,"nx":28,"ny":28,"refTime":"2024-02-05T09:00:00:Z","depth":0,"parameterNumber":3,"parameterNumberName":"V-component_of_WINDS"},"data":[0,0,0,0,0,0,0,0,0,0,0,0,0,0,0,0,0,0,0,0,0,0,0,0,0,0,0,0,0,0,0,0,0,0,0,0,0,0,0,0,0,0,0,0,0,0,0,0,0,0,0,0,0,0,0,0,0,0,-4.8773,-4.8775,0,-4.8968,-4.897,-4.8973,-4.8945,-4.8941,-4.8938,-4.8935,-4.9136,-4.9144,-4.9153,0,0,0,0,0,0,0,0,0,0,0,0,0,-4.8379,-4.8386,-4.8773,-4.8775,-4.8778,-4.8968,-4.8971,-4.8973,-4.8945,-4.8941,-4.8937,-4.8933,-4.9134,-4.9143,-4.9154,0,0,0,0,0,0,0,0,0,0,0,0,0,-4.856,-4.8389,-4.8773,-4.8787,-4.879,-4.8967,-4.8971,-4.8974,-4.8946,-4.8941,-4.8936,-4.8932,-4.913,-4.9143,-4.9155,-4.9331,0,0,-4.9194,-4.9199,0,0,0,0,0,0,0,0,-4.855,-4.8574,-4.8782,-4.8786,-4.879,-4.8927,-4.8905,-4.9094,-4.8947,-4.8887,-4.8935,-4.8929,-4.9071,-4.9088,-4.9135,-4.9341,-4.9349,-4.9195,-4.9202,-4.9208,-4.9211,0,0,0,0,0,0,0,-4.8537,-4.8566,-4.885,-4.8785,-4.879,-4.8784,-4.8805,-4.8941,-4.9004,-4.8892,-4.889,-4.8913,-4.9072,-4.9123,-4.914,-4.9352,-4.9194,-4.9206,-4.9213,-4.9218,-4.9714,-4.972,0,0,0,0,0,0,-4.852,-4.8555,-4.8844,-4.8856,-4.8655,-4.8795,-4.8818,-4.8888,-4.9002,-4.9015,-4.8917,-4.8911,-4.9104,-4.9125,-4.9147,-4.9363,-4.9208,-4.9219,-4.9227,-4.9709,-4.9716,-4.9722,0,0,0,0,0,0,-4.8512,-4.8546,-4.8836,-4.8706,-4.8742,-4.8807,-4.8886,-4.8894,-4.8946,-4.9022,-4.9033,-4.8958,-4.9101,-4.9129,-4.9286,-4.9369,-4.9225,-4.9237,-4.9702,-4.9711,-4.9719,-4.9795,0,0,0,0,0,0,-4.8501,-4.8544,-4.861,-4.8707,-4.8749,-4.8972,-4.8891,-4.8902,-4.8967,-4.8961,-4.9063,-4.9075,-4.9099,-4.9267,-4.9299,-4.9384,-4.9246,-4.9695,-4.9706,-4.9716,-4.9785,-4.9805,-4.9821,0,0,0,0,0,-4.8487,-4.8624,-4.8614,-4.8649,-4.8834,-4.8976,-4.9,-4.9025,-4.8974,-4.9043,-4.9092,-4.9072,-4.9355,-4.9284,-4.9319,-4.9409,-4.969,-4.9703,-4.9715,-4.9777,-4.9801,-4.9821,0,0,0,0,0,0,-4.8536,-4.8637,-4.8627,-4.8799,-4.8879,-4.8971,-4.9058,-4.9049,-4.9146,-4.9136,-4.9163,-4.9186,-4.9345,-4.9393,-4.9312,-4.9587,-4.9515,-4.9536,-4.955,-4.9574,-4.9592,-4.9578,-4.9257,0,0,0,0,0,-4.8566,-4.8673,-4.8755,-4.89,-4.894,-4.8993,-4.9055,-4.9067,-4.9152,-4.9186,-4.9246,-4.933,-4.9437,-4.9508,-4.9611,-4.9791,-4.9814,-4.9871,-4.9889,-4.9903,-4.9921,-5.0023,-5.0049,-4.9763,-4.9763,-4.9763,0,0,-4.8631,-4.8699,-4.8765,-4.8911,-4.8975,-4.9086,-4.9021,-4.9141,-4.9224,-4.9204,-4.9357,-4.9404,-4.9499,-4.9669,-4.9747,-4.9713,-5.0005,-4.9919,-4.993,-4.9941,-5.0038,-5.0065,-5.0089,-4.9772,-4.977,-4.9769,0,0,-4.8806,-4.8867,-4.8995,-4.9061,-4.9158,-4.9192,-4.9222,-4.9317,-4.9347,-4.9501,-4.9489,-4.9588,-4.9772,-4.9841,-4.99,-5.0103,-5.0089,-5.0136,-5.0231,-5.033,-5.0352,-5.0373,-5.0447,-5.0473,-5.0153,-5.0153,-5.0153,0,-4.8874,-4.904,-4.9062,-4.9185,-4.925,-4.9237,-4.9368,-4.943,-4.9556,-4.9602,-4.9562,-4.9795,-4.9858,-5.0045,-5.0094,-5.0142,-5.0179,-5.0125,-5.0347,-5.0368,-5.0387,-5.0458,-5.0486,-5.0158,-5.0157,-5.0157,-5.0156,0,-4.9121,-4.9236,-4.9328,-4.9451,-4.9526,-4.9652,-4.9694,-4.9769,-4.9774,-4.9813,-4.997,-5.0045,-5.0164,-5.0209,-5.0215,-5.0398,-5.0374,-5.0341,-5.027,-5.0419,-5.0487,-5.0514,-5.0165,-5.0164,-5.0162,-5.0161,0,0,-4.9333,-4.9466,-4.95,-4.9556,-4.9663,-4.9753,-4.9879,-4.9995,-5.006,-5.0147,-5.0254,-5.0411,-5.0381,-5.0449,-5.0463,-5.0549,-5.0708,-5.0505,-5.0508,-5.0542,-5.0916,-5.0943,-5.0974,-5.0698,-5.0703,-5.0708,-5.0909,0,-4.952,-4.9742,-4.9766,-4.9965,-5.0073,-5.0062,-5.0172,-5.025,-5.029,-5.0388,-5.0432,-5.0544,-5.0494,-5.0535,-5.062,-5.067,-5.0784,-5.0656,-5.0801,-5.0805,-5.078,-5.1009,-5.1037,-5.1224,-5.0936,-5.094,-5.0943,0,-4.9768,-4.9863,-5.0073,-5.0166,-5.0213,-5.0311,-5.0421,-5.0514,-5.0603,-5.0626,-5.0702,-5.0705,-5.0836,-5.0759,-5.0941,-5.0854,-5.0914,-5.0948,-5.0956,-5.0972,-5.0885,-5.1034,-5.1284,-5.1313,-5.0985,-5.0982,-5.0979,0,-4.9905,-5.0085,-5.0234,-5.0282,-5.0394,-5.0464,-5.0514,-5.0598,-5.0667,-5.0763,-5.0809,-5.0919,-5.098,-5.1065,-5.1099,-5.1039,-5.128,-5.1205,-5.1305,-5.1304,-5.1358,-5.1355,-5.1623,-5.1393,-5.1392,-5.1392,-5.1391,0,-5.0112,-5.0242,-5.0297,-5.039,-5.0535,-5.0561,-5.0705,-5.0752,-5.0827,-5.0929,-5.0926,-5.1022,-5.1059,-5.1161,-5.1188,-5.1337,-5.1363,-5.1387,-5.1393,-5.1389,-5.1386,-5.1431,-5.142,-5.1399,-5.1398,-5.1396,-5.1395,0,-5.029,-5.0332,-5.0495,-5.0588,-5.0614,-5.0718,-5.0798,-5.0888,-5.0926,-5.1055,-5.1087,-5.1148,-5.1269,-5.131,-5.1456,-5.1474,-5.1648,-5.1641,-5.1618,-5.162,-5.1718,-5.171,-5.2027,-5.2071,-5.1809,-5.1812,-5.1814,0,-5.0421,-5.052,-5.0624,-5.0693,-5.0745,-5.0855,-5.0926,-5.0956,-5.103,-5.114,-5.1217,-5.1337,-5.1434,-5.1628,-5.1686,-5.1798,-5.1796,-5.1899,-5.1813,-5.1806,-5.1801,-5.1796,-5.1807,-5.1916,-5.1919,-5.1921,-5.1923,0,-5.065,-5.0666,-5.0768,-5.0878,-5.0963,-5.1051,-5.1136,-5.1192,-5.1236,-5.1319,-5.1443,-5.1519,-5.1668,-5.1788,-5.1903,-5.1955,-5.1948,-5.1949,-5.1979,-5.1977,-5.196,-5.1973,-5.1665,-5.1943,-5.1941,-5.1939,-5.1938,-5.1937,-5.081,-5.0899,-5.0987,-5.1101,-5.1168,-5.1249,-5.1338,-5.1388,-5.1491,-5.1616,-5.1627,-5.1761,-5.1849,-5.2003,-5.2061,-5.2167,-5.2138,-5.218,-5.2191,-5.2202,-5.2211,-5.1942,-5.2187,-5.2187,-5.2186,-5.2186,-5.2186,0,-5.1041,-5.1097,-5.1202,-5.1322,-5.1412,-5.1396,-5.149,-5.1567,-5.1685,-5.1767,-5.1864,-5.2007,-5.2123,-5.219,-5.2307,-5.2379,-5.2379,-5.2409,-5.2405,-5.2418,-5.2228,-5.2193,-5.2408,-5.2408,-5.2408,-5.2408,-5.2408,-5.2407,-5.1172,-5.1322,-5.1349,-5.1534,-5.1589,-5.172,-5.1775,-5.185,-5.1916,-5.2076,-5.2173,-5.2216,-5.2293,-5.2416,-5.2523,-5.2539,-5.2584,-5.2618,-5.2632,-5.2454,-5.2431,-5.241,-5.2376,-5.2626,-5.2627,-5.2813,-5.2815,-5.2816]}]]